Vertical_Velocity
1 1 1 0 3 1 0 -0 -1 -1 -1 -0 -0 -1 -2 -1 -1 0 -1 0 -0 -0 -1 -0 -1 -1 -1 -1 -1 -2 -1 -0 -1
1 1 1 1 1 0 0 -0 1 -1 -2 -0 0 -1 -1 -1 -0 -0 -1 -0 0 0 -1 -1 -1 -1 -1 -1 -1 -1 -0 -1 -0
-0 1 2 1 1 0 -0 -0 1 -1 -1 -0 1 -1 -1 0 1 -1 -0 -0 0 0 0 0 -0 -2 -2 -2 -2 -2 -1 0 -1
-0 0 1 1 2 -0 1 0 2 -1 -0 -0 0 -1 -1 -0 0 -0 -0 -0 1 0 -1 -0 -1 -1 -1 -2 -1 -1 -0 -1 0
0 -1 1 1 1 1 -0 -0 2 -0 -1 -1 -0 -1 0 -1 -1 -0 -1 0 -0 -0 -0 0 -1 -1 -1 -1 -0 -2 -1 -2 -0
-0 -0 0 1 1 2 1 -0 1 0 -1 -1 -0 -0 -1 -1 -2 -0 0 -0 0 0 -0 -1 -1 0 -1 0 -2 -1 -1 -0 -1
-1 1 -0 1 -0 2 -0 1 3 1 0 -1 -0 -1 -0 -1 -0 -1 0 1 -0 0 -1 -0 -2 -1 -2 -1 -1 -1 -0 -1 -1
1 3 4 2 0 2 2 1 2 1 3 -1 -0 -1 -0 -1 -0 -0 -0 -0 0 -1 -1 -1 -0 -0 -1 -2 -1 -0 -1 -1 -0
3 0 2 1 -0 3 2 0 2 1 1 1 0 -0 -1 -1 -0 -0 -1 -1 -0 -0 -1 -0 -0 -1 -1 -0 -1 -1 -1 -1 -1
4 -2 1 2 1 2 1 -0 2 -0 0 0 0 -0 -1 -0 0 -0 0 -1 -2 -0 -1 -0 -0 -1 -1 -2 -1 -1 -0 -2 -1
2 -0 -0 3 1 -1 2 0 1 1 1 -0 -0 -1 -1 -1 -0 -0 -0 -0 0 -0 -1 -0 -1 0 -0 -1 -1 -1 -1 -2 -1
-1 2 -2 1 3 2 3 4 3 2 2 -0 -0 -0 -0 -1 -0 0 -0 -0 -1 0 -1 -1 0 0 -1 -1 -1 -0 -1 -1 -1
-1 2 -2 -2 -0 2 3 0 1 2 2 1 -0 -0 0 -1 0 -1 -1 -1 -1 0 1 -0 -0 0 -0 -2 -2 -1 0 -1 -0
0 2 -3 1 -1 1 1 2 1 0 1 0 1 0 -0 -0 -0 0 -0 -0 0 0 0 -0 0 1 1 -1 -2 -1 -1 -1 -1
1 4 -2 -0 1 -2 2 3 4 -0 1 2 2 1 1 0 -0 -0 -1 0 -0 0 1 -0 -0 0 0 -1 -0 -1 -1 -1 -2
0 2 1 -1 1 -1 -1 1 2 3 1 1 1 1 0 -0 -1 -0 -1 -0 -0 0 -0 0 0 1 1 -1 -0 -1 0 -1 -1
1 2 5 -2 1 1 -2 1 2 3 2 -0 -0 2 0 0 -1 -1 -0 0 -1 -0 -0 1 1 1 2 1 -1 -1 -0 0 -2
3 1 3 1 -1 1 0 -2 1 1 1 -1 1 -3 1 -2 -1 0 1 0 0 0 -0 -0 0 1 1 1 0 -2 -1 -1 0
2 1 0 1 -1 2 0 -1 -1 -1 -0 2 -1 1 0 0 2 -0 0 0 1 1 1 0 -1 0 2 -0 0 0 0 0 -0
-1 -0 -1 2 3 -1 0 0 0 1 2 0 0 0 -2 2 -2 0 -1 1 0 1 1 1 0 1 1 1 0 1 1 2 -0
Height
5869 5872 5875 5878 5881 5884 5887 5889 5891 5893 5894 5895 5897 5897 5898 5899 5899 5899 5899 5899 5898 5897 5895 5893 5891 5889 5888 5886 5883 5880 5878 5875 5872
5867 5871 5874 5877 5880 5883 5886 5888 5891 5893 5894 5896 5897 5898 5899 5900 5900 5900 5900 5900 5899 5898 5896 5894 5892 5891 5889 5887 5884 5882 5879 5876 5873
5865 5870 5872 5876 5879 5882 5884 5887 5890 5892 5894 5896 5897 5899 5900 5901 5901 5901 5901 5901 5900 5899 5897 5896 5894 5892 5890 5888 5885 5883 5880 5877 5875
5864 5868 5871 5875 5878 5880 5883 5886 5889 5891 5893 5896 5897 5899 5900 5901 5902 5902 5902 5902 5901 5900 5898 5897 5895 5893 5891 5888 5886 5883 5881 5878 5875
5862 5866 5869 5872 5876 5879 5882 5885 5888 5890 5893 5895 5897 5899 5900 5901 5901 5902 5902 5902 5901 5900 5899 5897 5896 5894 5891 5889 5887 5884 5881 5878 5876
5860 5864 5866 5870 5874 5876 5880 5884 5887 5890 5892 5894 5897 5899 5900 5901 5902 5902 5903 5903 5902 5900 5899 5897 5896 5894 5892 5889 5887 5884 5882 5879 5877
5858 5861 5864 5868 5871 5875 5878 5882 5885 5888 5891 5894 5896 5898 5900 5901 5902 5902 5903 5902 5902 5900 5899 5898 5896 5894 5892 5890 5888 5885 5883 5880 5877
5856 5859 5863 5865 5869 5873 5876 5881 5884 5887 5890 5893 5896 5898 5900 5901 5902 5902 5902 5902 5901 5900 5899 5898 5896 5894 5893 5891 5889 5886 5884 5881 5878
5852 5856 5859 5863 5867 5871 5875 5878 5882 5885 5889 5892 5895 5897 5899 5901 5901 5902 5902 5902 5901 5900 5899 5898 5896 5895 5893 5891 5889 5887 5884 5881 5879
5848 5852 5856 5861 5865 5869 5872 5876 5880 5884 5887 5891 5894 5896 5898 5899 5900 5901 5901 5901 5900 5899 5898 5897 5896 5895 5894 5893 5890 5888 5885 5882 5879
5843 5848 5852 5858 5861 5865 5870 5874 5878 5882 5885 5889 5892 5894 5896 5897 5898 5899 5900 5900 5899 5899 5898 5897 5896 5895 5894 5893 5891 5889 5886 5883 5880
5839 5844 5849 5853 5858 5863 5867 5872 5876 5880 5884 5887 5890 5892 5894 5896 5897 5898 5898 5898 5898 5897 5897 5897 5896 5895 5894 5893 5892 5889 5887 5884 5882
5834 5839 5844 5849 5855 5859 5864 5868 5872 5877 5881 5884 5888 5890 5892 5893 5895 5895 5896 5896 5896 5896 5896 5896 5895 5895 5894 5893 5892 5889 5887 5885 5882
5828 5834 5840 5845 5850 5855 5860 5865 5870 5874 5878 5881 5885 5887 5889 5891 5892 5893 5894 5894 5893 5893 5894 5894 5894 5894 5894 5893 5892 5890 5888 5885 5883
5823 5829 5835 5841 5846 5852 5857 5862 5866 5870 5874 5878 5881 5883 5885 5887 5889 5890 5891 5891 5891 5891 5892 5892 5892 5893 5893 5892 5891 5890 5888 5886 5883
5818 5824 5830 5836 5842 5846 5851 5856 5862 5866 5870 5873 5876 5879 5882 5884 5886 5887 5888 5888 5888 5889 5889 5890 5890 5891 5892 5891 5891 5890 5889 5887 5884
5812 5818 5824 5830 5836 5842 5847 5852 5857 5861 5865 5868 5872 5875 5878 5880 5882 5883 5885 5885 5886 5886 5887 5888 5888 5890 5890 5890 5889 5889 5888 5886 5884
5805 5812 5818 5823 5830 5836 5841 5846 5851 5855 5859 5864 5867 5870 5873 5875 5877 5879 5880 5881 5882 5883 5884 5885 5886 5887 5887 5888 5887 5887 5887 5886 5883
5798 5804 5811 5817 5823 5829 5835 5840 5845 5850 5855 5858 5861 5865 5867 5870 5872 5874 5876 5877 5878 5880 5881 5882 5883 5884 5884 5885 5885 5885 5885 5885 5883
5791 5797 5804 5810 5816 5822 5828 5834 5839 5844 5848 5851 5855 5858 5861 5864 5867 5869 5871 5872 5874 5876 5877 5878 5879 5880 5881 5882 5883 5883 5883 5883 5882